User: anonymous   Login
Location: Argonnex
(45.9500°N, 6.1333°E)
Time: 18:50:57
(UTC+00:00)
Language:

NOAA 16 DEB - Orbit

View from above orbital plane
View from above orbital plane
View from above satellite
View from above satellite

Ground track
Ground track

The orbit data is extracted from the following two-line orbital elements,

1 41056U 00055P   24058.47918955  .00001204  00000-0  69388-3 0  9997
2 41056  98.5795  84.0829 0016406   0.4117 359.7066 14.10895560424805
Epoch (UTC): 27 February 2024 11:30:01
Eccentricity: 0.0016406
inclination: 98.5795°
perigee height: 844 km
apogee height: 868 km
right ascension of ascending node: 84.0829°
argument of perigee: 0.4117°
revolutions per day: 14.10895560
mean anomaly at epoch: 359.7066°
orbit number at epoch: 42480

The dashed part of the orbit path shows where the satellite is in the earth's shadow,  

DLR